Location: Newark
(7.0858°N, 171.3717°E)
Time: 01:06:55
(UTC+00:00)

ITUPSAT 1 - Visible Passes

Search period start: 14 October 2019 00:00
Search period end: 24 October 2019 00:00
Orbit: 702 x 713 km, 98.6° (Epoch: 12 October)

Date Brightness Start Highest point End Pass type
(mag) Time Alt. Az. Time Alt. Az. Time Alt. Az.
14 Oct ? 16:32:33 10° ESE 16:35:13 15° ENE 16:37:53 10° NE visible
15 Oct ? 17:14:38 10° SSE 17:19:20 55° ENE 17:24:00 10° N visible
16 Oct ? 16:24:48 10° E 16:26:04 11° ENE 16:27:20 10° ENE visible
16 Oct ? 17:59:04 10° S 18:03:31 38° WSW 18:07:58 10° NNW visible
17 Oct ? 17:05:40 10° SE 17:10:10 41° ENE 17:14:38 10° N visible
18 Oct ? 17:49:40 10° S 17:54:20 51° WSW 17:58:59 10° NNW visible
19 Oct ? 16:56:47 10° SE 17:00:59 31° ENE 17:05:10 10° NNE visible
20 Oct ? 17:40:22 10° S 17:45:09 70° WSW 17:49:55 10° NNW visible
21 Oct ? 16:48:03 10° SE 16:51:50 23° ENE 16:55:35 10° NNE visible
22 Oct ? 06:45:09 10° NW 06:47:31 14° WNW 06:49:53 10° WSW visible
22 Oct ? 17:31:09 10° SSE 17:35:58 88° E 17:40:45 10° NNW visible
23 Oct ? 16:39:30 10° ESE 16:42:40 18° ENE 16:45:49 10° NE visible
